Location: Unspecified
(0.0000°N, 0.0000°E)
Time: 14:18:28
(UTC+00:00)

Vanguard 2 Rocket - Pass Details

Date: 15 December 2017
Orbit: 553 x 3328 km, 32.9° (Epoch: 21 April)

Event Time Altitude Azimuth Distance (km) Brightness Sun altitude
Rises 02:25:50 0° 308° (NW) 7,307 - -46.6°
Reaches altitude 10° 02:30:53 10° 310° (NW) 6,264 - -45.6°
Exits shadow 02:48:43 72° 346° (NNW) 2,869 9.0 -41.9°
Maximum altitude 02:50:42 78° 35° (NE) 2,708 9.0 -41.4°
Drops below altitude 10° 03:03:17 10° 120° (ESE) 4,231 11.0 -38.7°
Sets 03:05:58 0° 121° (ESE) 4,924 11.6 -38.2°
